Weather History for Delaware, OH

Change the Weather History Date:

Saturday, April 12, 2014

  Actual Average Record
Temperature  
Mean Temperature 55 °F -  
Max Temperature 73 °F 58 °F 82 °F (1977)
Min Temperature 37 °F 33 °F 19 °F (1940)
Degree Days  
Heating Degree Days 10    
Growing Degree Days 5 (Base 50)    
Moisture  
Dew Point 42 °F    
Average Humidity 62    
Maximum Humidity 100    
Minimum Humidity 30    
Precipitation  
Precipitation 0.00 in - - ()
Sea Level Pressure  
Sea Level Pressure 30.06 in    
Wind  
Wind Speed 5 mph (South)    
Max Wind Speed 18 mph    
Max Gust Speed 23 mph    
Visibility 10 miles    
Events      
Averages and records for this station are not official NWS values.
T = Trace of Precipitation, MM = Missing Value Source: NWS Daily Summary

Daily Weather History Graph

Daily Weather History Graph

Search for Another Location

Airport:

Trip Planner

Search our weather history database for the weather conditions in past years. The results will help you decide how hot, cold, wet, or windy it might be!

Date:

Astronomy

Apr. 12, 2014 Rise Set
Actual Time 6:58 AM EDT 8:08 PM EDT
Civil Twilight 6:30 AM EDT 8:36 PM EDT
Nautical Twilight 5:57 AM EDT 9:09 PM EDT
Astronomical Twilight 5:22 AM EDT 9:44 PM EDT
Moon 5:45 PM EDT (4/12) 5:25 AM EDT (4/12)
Length of Visible Light 14h 05m
Length of Day
13h 09m
Waxing Gibbous, 93% of the Moon is Illuminated
Apr 12
Waxing Gibbous
Apr 15
Full
Apr 22
Last Quarter
Apr 29
New
May 6
First Quarter

Hourly Weather History & Observations

Time (EDT) Temp. Windchill Dew Point Humidity Pressure Visibility Wind Dir Wind Speed Gust Speed Precip Events Conditions
12:16 AM 44.6 °F - 41.0 °F 87% 30.10 in 10.0 mi Calm Calm - N/A   Clear
12:36 AM 42.8 °F - 41.0 °F 93% 30.10 in 10.0 mi Calm Calm - N/A   Clear
12:57 AM 42.8 °F - 41.0 °F 93% 30.10 in 10.0 mi Calm Calm - N/A   Clear
1:16 AM 41.0 °F - 39.2 °F 93% 30.10 in 10.0 mi Calm Calm - N/A   Clear
1:36 AM 42.8 °F 41.1 °F 37.4 °F 81% 30.11 in 10.0 mi South 3.5 mph - N/A   Clear
1:57 AM 42.8 °F - 37.4 °F 81% 30.11 in 10.0 mi Calm Calm - N/A   Clear
2:16 AM 44.6 °F - 37.4 °F 76% 30.11 in 10.0 mi Calm Calm - N/A   Clear
2:36 AM 41.0 °F - 37.4 °F 87% 30.11 in 10.0 mi Calm Calm - N/A   Clear
2:57 AM 42.8 °F 41.1 °F 39.2 °F 87% 30.11 in 10.0 mi South 3.5 mph - N/A   Clear
3:16 AM 41.0 °F 39.0 °F 37.4 °F 87% 30.11 in 10.0 mi South 3.5 mph - N/A   Clear
3:36 AM 42.8 °F - 37.4 °F 81% 30.11 in 10.0 mi Calm Calm - N/A   Clear
3:57 AM 41.0 °F - 37.4 °F 87% 30.12 in 10.0 mi Calm Calm - N/A   Clear
4:16 AM 42.8 °F - 37.4 °F 81% 30.13 in 10.0 mi Calm Calm - N/A   Clear
4:37 AM 41.0 °F - 37.4 °F 87% 30.13 in 10.0 mi Calm Calm - N/A   Clear
4:56 AM 39.2 °F - 35.6 °F 87% 30.13 in 10.0 mi Calm Calm - N/A   Clear
5:16 AM 39.2 °F - 37.4 °F 93% 30.14 in 10.0 mi Calm Calm - N/A   Clear
5:37 AM 37.4 °F 34.9 °F 35.6 °F 93% 30.14 in 7.0 mi East 3.5 mph - N/A   Clear
5:57 AM 37.4 °F 34.9 °F 37.4 °F 100% 30.14 in 10.0 mi ESE 3.5 mph - N/A   Clear
6:16 AM 37.4 °F 34.9 °F 35.6 °F 93% 30.15 in 10.0 mi SE 3.5 mph - N/A   Clear
6:37 AM 37.4 °F - 35.6 °F 93% 30.15 in 10.0 mi Calm Calm - N/A   Clear
6:57 AM 37.4 °F - 35.6 °F 93% 30.16 in 10.0 mi Calm Calm - N/A   Clear
7:16 AM 37.4 °F - 37.4 °F 100% 30.16 in 7.0 mi Calm Calm - N/A   Clear
7:37 AM 37.4 °F - 37.4 °F 100% 30.17 in 10.0 mi Calm Calm - N/A   Clear
7:56 AM 41.0 °F 39.0 °F 39.2 °F 93% 30.17 in 10.0 mi SE 3.5 mph - N/A   Clear
8:16 AM 44.6 °F 40.7 °F 41.0 °F 87% 30.17 in 10.0 mi SSE 6.9 mph - N/A   Clear
8:37 AM 48.2 °F - 42.8 °F 82% 30.16 in 10.0 mi SSE 3.5 mph - N/A   Clear
8:56 AM 50.0 °F - 42.8 °F 76% 30.16 in 10.0 mi South 5.8 mph - N/A   Clear
9:16 AM 53.6 °F - 42.8 °F 67% 30.16 in 10.0 mi South 8.1 mph - N/A   Clear
9:37 AM 55.4 °F - 42.8 °F 63% 30.16 in 10.0 mi South 8.1 mph - N/A   Clear
9:56 AM 55.4 °F - 42.8 °F 63% 30.17 in 10.0 mi South 10.4 mph - N/A   Clear
10:16 AM 57.2 °F - 42.8 °F 59% 30.17 in 10.0 mi South 13.8 mph - N/A   Clear
10:37 AM 59.0 °F - 42.8 °F 55% 30.16 in 10.0 mi South 10.4 mph - N/A   Clear
10:56 AM 60.8 °F - 41.0 °F 48% 30.16 in 10.0 mi South 15.0 mph - N/A   Clear
11:16 AM 62.6 °F - 42.8 °F 48% 30.16 in 10.0 mi South 11.5 mph - N/A   Clear
11:37 AM 62.6 °F - 41.0 °F 45% 30.15 in 10.0 mi South 13.8 mph 20.7 mph N/A   Clear
11:56 AM 62.6 °F - 39.2 °F 42% 30.14 in 10.0 mi SSE 16.1 mph 21.9 mph N/A   Clear
12:16 PM 64.4 °F - 37.4 °F 37% 30.13 in 10.0 mi SSE 17.3 mph - N/A   Clear
12:37 PM 66.2 °F - 39.2 °F 37% 30.11 in 10.0 mi SSE 15.0 mph 21.9 mph N/A   Clear
12:56 PM 68.0 °F - 37.4 °F 33% 30.10 in 10.0 mi South 18.4 mph 21.9 mph N/A   Clear
1:16 PM 68.0 °F - 35.6 °F 30% 30.09 in 10.0 mi SSE 12.7 mph 23.0 mph N/A   Clear
1:37 PM 69.8 °F - 37.4 °F 31% 30.08 in 10.0 mi SSE 17.3 mph 23.0 mph N/A   Clear
1:56 PM 69.8 °F - 39.2 °F 33% 30.07 in 10.0 mi South 11.5 mph 21.9 mph N/A   Clear
2:16 PM 69.8 °F - 41.0 °F 35% 30.07 in 10.0 mi South 10.4 mph 17.3 mph N/A   Clear
2:37 PM 69.8 °F - 42.8 °F 38% 30.06 in 10.0 mi SSW 17.3 mph 21.9 mph N/A   Clear
2:56 PM 71.6 °F - 42.8 °F 35% 30.04 in 10.0 mi South 16.1 mph 23.0 mph N/A   Clear
3:16 PM 71.6 °F - 42.8 °F 35% 30.03 in 10.0 mi South 15.0 mph 19.6 mph N/A   Clear
3:37 PM 71.6 °F - 44.6 °F 38% 30.01 in 10.0 mi SSW 16.1 mph 23.0 mph N/A   Scattered Clouds
3:56 PM 73.4 °F - 46.4 °F 38% 30.01 in 10.0 mi South 15.0 mph 19.6 mph N/A   Scattered Clouds
4:17 PM 71.6 °F - 46.4 °F 41% 30.00 in 10.0 mi SSW 10.4 mph 20.7 mph N/A   Mostly Cloudy
4:37 PM 73.4 °F - 46.4 °F 38% 29.99 in 10.0 mi SSW 13.8 mph 21.9 mph N/A   Mostly Cloudy
4:56 PM 71.6 °F - 46.4 °F 41% 29.99 in 10.0 mi South 11.5 mph 23.0 mph N/A   Mostly Cloudy
5:17 PM 73.4 °F - 46.4 °F 38% 29.98 in 10.0 mi South 13.8 mph 23.0 mph N/A   Mostly Cloudy
5:37 PM 71.6 °F - 46.4 °F 41% 29.97 in 10.0 mi SSW 11.5 mph 20.7 mph N/A   Mostly Cloudy
5:56 PM 71.6 °F - 46.4 °F 41% 29.96 in 10.0 mi South 15.0 mph 20.7 mph N/A   Scattered Clouds
6:17 PM 71.6 °F - 48.2 °F 43% 29.95 in 10.0 mi South 12.7 mph 18.4 mph N/A   Scattered Clouds
6:37 PM 71.6 °F - 48.2 °F 43% 29.95 in 10.0 mi SSW 11.5 mph 18.4 mph N/A   Scattered Clouds
6:56 PM 71.6 °F - 48.2 °F 43% 29.95 in 10.0 mi SSW 11.5 mph 19.6 mph N/A   Scattered Clouds
7:17 PM 69.8 °F - 48.2 °F 46% 29.94 in 10.0 mi South 10.4 mph 18.4 mph N/A   Scattered Clouds
7:37 PM 69.8 °F - 48.2 °F 46% 29.93 in 10.0 mi South 9.2 mph - N/A   Clear
7:56 PM 69.8 °F - 48.2 °F 46% 29.93 in 10.0 mi South 11.5 mph 16.1 mph N/A   Clear
8:17 PM 68.0 °F - 48.2 °F 49% 29.92 in 10.0 mi South 10.4 mph - N/A   Clear
8:37 PM 68.0 °F - 48.2 °F 49% 29.92 in 10.0 mi South 9.2 mph - N/A   Clear
8:56 PM 68.0 °F - 48.2 °F 49% 29.92 in 10.0 mi South 11.5 mph - N/A   Clear
9:17 PM 66.2 °F - 48.2 °F 52% 29.92 in 10.0 mi South 9.2 mph - N/A   Clear
9:36 PM 66.2 °F - 48.2 °F 52% 29.92 in 10.0 mi South 8.1 mph - N/A   Clear
9:56 PM 64.4 °F - 48.2 °F 56% 29.92 in 10.0 mi SSW 9.2 mph - N/A   Clear
10:17 PM 64.4 °F - 48.2 °F 56% 29.91 in 10.0 mi SSW 10.4 mph - N/A   Clear
10:36 PM 64.4 °F - 48.2 °F 56% 29.91 in 10.0 mi South 8.1 mph - N/A   Clear
10:56 PM 62.6 °F - 48.2 °F 59% 29.91 in 10.0 mi South 5.8 mph - N/A   Clear
11:17 PM 62.6 °F - 46.4 °F 55% 29.90 in 10.0 mi South 5.8 mph - N/A   Clear
11:36 PM 60.8 °F - 48.2 °F 63% 29.90 in 10.0 mi South 5.8 mph - N/A   Clear
11:56 PM 60.8 °F - 48.2 °F 63% 29.90 in 10.0 mi South 6.9 mph - N/A   Clear